Погода в Чапаеве

Россия / Астраханская область     45°58′40″N   48°16′17″E
темп.,
°C
ветер,
м/с
пор.,
м/с
влажн.,
%
обл.,
%
осадки,
мм/ч
давл.,
гПа
погр.,
м
17 апреля, сб
сб1701:00+16зсз36451 0.0 101887
04:00+14з225158 0.0 101913
07:00+14зсз1252100 0.0 101921
10:00+20юз333485 0.0 1019652
13:00+24ююз542497 0.0 10192183
16:00+20ююз6630100 0.0 1020679
19:00+18ююз4535100 0.0 1020317
22:00+16ююз354498 0.0 1020145
18 апреля, вс
вс1801:00+15сз3444100 0.0 1020127
04:00+14с1378100 1.1 1021156
07:00+13ссв3485100 0.4 1020267
10:00+14ссв1179100 0.4 1020268
13:00+16зюз1263100 0.0 1019566
16:00+15юз3370100 0.6 1019384
19:00+15зюз237671 0.3 1018220
22:00+13з338120 0.3 101834
19 апреля, пн
пн1901:00+12зсз348599 0.0 101851
04:00+13сз238057 0.0 101845
07:00+14ссз117399 0.0 101723
10:00+16в1158100 0.0 1018424
13:00+20ююз2241100 0.0 10171560
16:00+22ю4341100 0.0 10161673
19:00+18ююз4552100 0.0 1017374
22:00+15ююз3568100 0.0 1017222
20 апреля, вт
вт2001:00+14ю2378100 0.1 101675
04:00+13вюв3378100 0.1 101553
07:00+14вюв3772100 0.0 1015228
10:00+19вюв7936100 0.0 1016783
13:00+21вюв91231100 0.0 1014991
16:00+21вюв10133955 0.0 1013969
19:00+17в81752100 0.0 1013622
22:00+17вюв112051100 0.0 1013663
21 апреля, ср
ср2101:00+15вюв102056100 0.0 1014558
04:00+14вюв81562100 0.0 1016543
07:00+13вюв71166100 0.1 1018570
10:00+12вюв71070100 1.1 1020613
13:00+12вюв61173100 2.3 1021510
16:00+13вюв6970100 2.4 1021667
19:00+13всв5965100 0.0 1021466
22:00+13всв4764100 0.0 1021261